パンスターズ彗星

C/2024 L1 ( PanSTARRS )

English version
Home page
Updated on September 3, 2024

---------------------------------------------------------------------

・ プロフィール

発見日 2024年6月1日
発見光度 21.6等
発見者 Pan-STARRS 2 telescope (Haleakala)

・ 写真集

・ 軌道要素

Epoch 2024 Mar. 31.0 TT = JDT 2460400.5
T 2025 Apr. 23.84122 TT                                 Rudenko
q   5.3473414            (2000.0)            P               Q
n   0.02542976     Peri.  171.86160     -0.68230021     -0.21172339
a  11.4526998      Node    45.13802     -0.71396683     +0.39881203
e   0.5330934      Incl.   99.17350     -0.15721892     -0.89225679
P  38.8
>From 80 observations 2024 Apr. 30-July 8, mean residual 0".4.

・ 光度変化

        m1 = 9.5 + 5 logΔ + 10.0 log r

---------------------------------------------------------------------

軌道要素はM.P.E.C. 2024-N144に掲載されたものです。
光度グラフはComet for Windowsで作成したものです。

---------------------------------------------------------------------

Copyright(C) Seiichi Yoshida (comet@aerith.net). All rights reserved.